Location: Sobotiste
(48.7170°N, 17.4000°E)
Time: 08:20:06
(UTC+02:00)

AO-73 - Pass Details

Date: 20 March 2026
Orbit: 514 x 567 km, 97.8° (Epoch: 14 April)

Event Time Altitude Azimuth Distance (km) Brightness Sun altitude
Rises 04:30:45 0° 4° (N) 2,661 ? -14.3°
Reaches altitude 10° 04:33:03 10° 353° (N) 1,761 ? -14.0°
Maximum altitude 04:36:20 28° 293° (WNW) 985 ? -13.4°
Enters shadow 04:37:42 22° 257° (WSW) 1,157 ? -13.2°
